Weather in Gorohovec

Russia / Vladimir Oblast     56°12′06″N   42°41′28″E
temp.,
°C
wind,
m/s
gust,
m/s
humid.,
%
clouds,
%
prec.,
mm/h
press.,
hPa
HPBL,
m
3 march, wed
wed300:00−4nw4129274 0.1 1005492
03:00−6nw5139161 0.1 1007498
06:00−7nw5129397 0.0 1008499
09:00−7nw5119299 0.1 1010542
12:00−4nw6108799 0.0 1010695
15:00−2nw597979 0.1 10101039
18:00−3w4109069 0.0 1008753
21:00−3wsw4129582 0.1 1007508
4 march, thu
thu400:00−2wsw51292100 0.1 1003649
03:00−2wsw61395100 0.4 1001770
06:00−2sw61396100 0.6 997659
09:00+1w81697100 2.3 9951163
12:00+1wnw7128187 0.4 9951507
15:00−1wnw7128272 0.4 9971236
18:00−4w4118798 0.1 998456
21:00−6w379399 0.1 1000155
5 march, fri
fri500:00−6nnw2397100 0.1 100071
03:00−9n239699 0.1 100236
06:00−13n229685 0.0 100321
09:00−10nnw129353 0.0 1005134
12:00−5wnw238483 0.0 1006487
15:00−4w248291 0.0 1007737
18:00−7w129198 0.0 100721
21:00−9w129695 0.3 100921
6 march, sat
sat600:00−10wnw239695 0.0 101030
03:00−12nw389586 0.1 1011169
06:00−15nw359726 0.0 101277
09:00−14nnw369453 0.0 1014274
12:00−10nw358187 0.0 1014791
15:00−10wnw468194 0.1 10141009
18:00−13wnw2391100 0.1 101447
21:00−15w239580 0.1 101423
7 march, sun
sun700:00−14sw239751 0.0 101359
03:00−14ssw379668 0.1 1010141
06:00−14ssw5119155 0.0 1007326
09:00−10ssw7159278 0.1 1002800
12:00−6ssw81491100 0.8 9971117
15:00−4ssw81393100 2.1 9931023
18:00−7nw81391100 2.0 992659
21:00−13w129083 2.1 99221